Weather History for Petersburg, WV

Change the Weather History Date:

Wednesday, January 16, 2013

  Actual Average (KEKN) Record (KEKN)
Temperature  
Mean Temperature 42 °F 29 °F  
Max Temperature 49 °F 39 °F 66 °F (1949)
Min Temperature 34 °F 19 °F -18 °F (1994)
Degree Days  
Heating Degree Days 24 36  
Month to date heating degree days 576  
Since 1 July heating degree days 2867  
Cooling Degree Days 0 0  
Month to date cooling degree days 0  
Year to date cooling degree days 0  
Moisture  
Dew Point 37 °F    
Average Humidity 85    
Maximum Humidity 92    
Minimum Humidity 63    
Precipitation  
Precipitation 0.19 in 0.11 in 1.51 in (1907)
Month to date precipitation 1.66  
Year to date precipitation 1.66  
Snow  
Snow 0.00 in - - ()
Month to date snowfall  
Since 1 September snowfall  
Snow Depth -    
Sea Level Pressure  
Sea Level Pressure 29.98 in    
Wind  
Wind Speed 1 mph (NW)    
Max Wind Speed 14 mph    
Max Gust Speed 25 mph    
Visibility 9 miles    
Events Rain , Snow    
T = Trace of Precipitation, MM = Missing Value Source: NWS Daily Summary

Daily Weather History Graph

Daily Weather History Graph

Search for Another Location

Airport:

Trip Planner

Search our weather history database for the weather conditions in past years. The results will help you decide how hot, cold, wet, or windy it might be!

Date:

Astronomy

Jan. 16, 2013 Rise Set
Actual Time 7:33 AM EST 5:19 PM EST
Civil Twilight 7:04 AM EST 5:49 PM EST
Nautical Twilight 6:31 AM EST 6:21 PM EST
Astronomical Twilight 5:59 AM EST 6:53 PM EST
Moon 10:12 AM EST (1/16) 11:06 PM EST (1/16)
Length of Visible Light 10h 44m
Length of Day
9h 46m
Waxing Crescent, 28% of the Moon is Illuminated
Jan 16
Waxing Crescent
Jan 18
First Quarter
Jan 26
Full
Feb 3
Last Quarter
Feb 10
New

Hourly Weather History & Observations

Time (EST) Temp. Windchill Dew Point Humidity Pressure Visibility Wind Dir Wind Speed Gust Speed Precip Events Conditions
12:15 AM 36.5 °F - 34.2 °F 91% 30.12 in 2.0 mi Calm Calm - 0.06 in Snow Light Snow
12:35 AM 36.5 °F - 34.3 °F 92% 30.12 in 2.0 mi Calm Calm - 0.10 in   Overcast
1:15 AM 36.1 °F - 34.0 °F 92% 30.12 in 4.0 mi Calm Calm - 0.02 in   Overcast
1:35 AM 36.0 °F - 33.8 °F 92% 30.11 in 4.0 mi Calm Calm - 0.03 in   Overcast
1:55 AM 36.1 °F - 33.8 °F 91% 30.11 in 7.0 mi Calm Calm - 0.03 in   Overcast
2:15 AM 36.5 °F - 34.0 °F 91% 30.10 in 10.0 mi Calm Calm - N/A   Overcast
2:35 AM 36.7 °F - 34.3 °F 91% 30.09 in 10.0 mi Calm Calm - 0.01 in   Overcast
2:55 AM 36.5 °F - 34.2 °F 91% 30.07 in 10.0 mi Calm Calm - 0.01 in   Overcast
3:15 AM 36.7 °F - 34.3 °F 91% 30.06 in 10.0 mi Calm Calm - N/A   Overcast
3:35 AM 36.7 °F - 34.3 °F 91% 30.06 in 7.0 mi Calm Calm - N/A   Overcast
3:55 AM 36.5 °F - 34.2 °F 91% 30.04 in 7.0 mi Calm Calm - 0.01 in   Overcast
4:15 AM 36.9 °F - 34.7 °F 92% 30.02 in 7.0 mi Calm Calm - N/A   Overcast
4:35 AM 36.9 °F - 34.7 °F 92% 30.02 in 7.0 mi Calm Calm - 0.01 in   Overcast
4:55 AM 36.5 °F - 34.2 °F 91% 30.03 in 7.0 mi Calm Calm - 0.01 in   Overcast
5:15 AM 36.7 °F - 34.3 °F 91% 30.02 in 7.0 mi Calm Calm - 0.01 in   Overcast
5:35 AM 36.7 °F - 34.3 °F 91% 30.03 in 7.0 mi Calm Calm - 0.02 in   Overcast
5:55 AM 36.7 °F - 34.2 °F 91% 30.03 in 5.0 mi Calm Calm - 0.03 in   Overcast
6:15 AM 36.5 °F - 34.0 °F 91% 30.01 in 5.0 mi Calm Calm - 0.01 in   Overcast
6:35 AM 36.5 °F - 34.0 °F 91% 30.01 in 5.0 mi Calm Calm - 0.03 in   Overcast
7:35 AM 36.9 °F - 34.7 °F 92% 30.02 in 5.0 mi Calm Calm - 0.03 in   Overcast
7:55 AM 36.7 °F - 34.3 °F 91% 30.01 in 4.0 mi Calm Calm - 0.04 in   Overcast
8:15 AM 35.2 °F - 33.1 °F 92% 29.99 in 3.0 mi Calm Calm - 0.01 in   Overcast
8:35 AM 34.5 °F - 32.5 °F 92% 30.00 in 7.0 mi Calm Calm - 0.01 in   Overcast
8:55 AM 34.5 °F - 32.4 °F 92% 29.98 in 10.0 mi Calm Calm - 0.02 in   Overcast
9:15 AM 34.9 °F - 32.4 °F 91% 29.97 in 10.0 mi Calm Calm - N/A   Overcast
9:35 AM 35.4 °F - 32.2 °F 88% 29.97 in 10.0 mi Calm Calm - N/A   Overcast
9:55 AM 36.1 °F - 32.9 °F 88% 29.95 in 10.0 mi Calm Calm - N/A Rain Light Rain
10:15 AM 36.9 °F - 33.3 °F 87% 29.94 in 10.0 mi Calm Calm - N/A   Drizzle
10:35 AM 38.1 °F - 34.7 °F 87% 29.90 in 10.0 mi Calm Calm - N/A   Drizzle
10:55 AM 39.2 °F - 36.0 °F 88% 29.87 in 10.0 mi Calm Calm - 0.01 in   Overcast
11:15 AM 40.1 °F - 37.0 °F 89% 29.82 in 10.0 mi Calm Calm - N/A   Light Drizzle
11:35 AM 41.4 °F - 38.3 °F 89% 29.79 in 10.0 mi Calm Calm - N/A   Overcast
11:55 AM 42.8 °F 38.0 °F 39.7 °F 89% 29.81 in 10.0 mi NNE 8.1 mph 25.3 mph N/A   Overcast
12:15 PM 43.9 °F 39.3 °F 40.5 °F 88% 29.82 in 10.0 mi North 8.1 mph - N/A   Overcast
12:35 PM 42.3 °F 35.1 °F 38.3 °F 86% 29.84 in 10.0 mi NNW 13.8 mph - N/A   Mostly Cloudy
12:55 PM 41.4 °F 39.4 °F 37.8 °F 87% 29.87 in 10.0 mi NNW 3.5 mph - N/A   Mostly Cloudy
1:15 PM 41.2 °F - 37.4 °F 86% 29.87 in 10.0 mi Calm Calm - N/A   Mostly Cloudy
1:35 PM 40.6 °F - 36.9 °F 86% 29.88 in 10.0 mi Calm Calm - N/A   Overcast
1:55 PM 40.3 °F 36.3 °F 36.5 °F 86% 29.89 in 10.0 mi SE 5.8 mph - N/A   Mostly Cloudy
2:15 PM 39.9 °F 35.8 °F 36.7 °F 88% 29.89 in 10.0 mi SE 5.8 mph - N/A   Scattered Clouds
2:35 PM 41.5 °F 38.6 °F 37.8 °F 86% 29.91 in 10.0 mi South 4.6 mph - N/A   Scattered Clouds
2:55 PM 42.1 °F - 37.8 °F 85% 29.92 in 10.0 mi Calm Calm - N/A   Mostly Cloudy
3:15 PM 43.5 °F - 39.0 °F 84% 29.91 in 10.0 mi Calm Calm - N/A   Overcast
3:35 PM 44.1 °F - 39.7 °F 85% 29.93 in 10.0 mi Calm Calm - N/A   Overcast
3:55 PM 48.6 °F - 39.0 °F 70% 29.93 in 10.0 mi West 8.1 mph - N/A   Overcast
4:15 PM 49.1 °F - 39.0 °F 68% 29.94 in 10.0 mi Calm Calm - N/A   Mostly Cloudy
4:35 PM 47.8 °F - 40.1 °F 75% 29.95 in 10.0 mi Calm Calm - N/A   Scattered Clouds
4:55 PM 46.6 °F - 40.3 °F 79% 29.95 in 10.0 mi Calm Calm - N/A   Scattered Clouds
5:15 PM 48.4 °F - 38.5 °F 69% 29.97 in 10.0 mi Calm Calm - N/A   Scattered Clouds
5:35 PM 48.0 °F - 38.3 °F 69% 29.96 in 10.0 mi Calm Calm - N/A   Mostly Cloudy
5:55 PM 47.1 °F - 38.1 °F 71% 29.97 in 10.0 mi Calm Calm - N/A   Scattered Clouds
6:15 PM 46.8 °F - 37.9 °F 71% 29.97 in 10.0 mi Calm Calm - N/A   Scattered Clouds
6:35 PM 47.7 °F - 37.8 °F 69% 29.98 in 10.0 mi Calm Calm - N/A   Scattered Clouds
6:55 PM 45.9 °F - 38.5 °F 75% 29.98 in 10.0 mi Calm Calm - N/A   Scattered Clouds
7:15 PM 46.8 °F - 39.2 °F 75% 29.99 in 10.0 mi Calm Calm - N/A   Scattered Clouds
7:35 PM 46.6 °F - 38.7 °F 74% 29.99 in 10.0 mi Calm Calm - N/A   Mostly Cloudy
7:55 PM 46.6 °F - 38.8 °F 74% 29.99 in 10.0 mi Calm Calm - N/A   Mostly Cloudy
8:15 PM 46.2 °F - 39.2 °F 76% 29.98 in 10.0 mi Calm Calm - N/A   Mostly Cloudy
8:35 PM 45.3 °F - 39.6 °F 80% 29.97 in 10.0 mi Calm Calm - N/A   Overcast
8:55 PM 45.5 °F - 40.3 °F 82% 29.98 in 10.0 mi Calm Calm - N/A   Overcast
9:15 PM 44.8 °F - 40.3 °F 84% 29.98 in 10.0 mi Calm Calm - N/A   Overcast
9:35 PM 45.1 °F - 40.5 °F 84% 29.99 in 10.0 mi Calm Calm - N/A   Overcast
9:55 PM 44.6 °F - 40.3 °F 85% 29.99 in 10.0 mi Calm Calm - N/A   Overcast
10:15 PM 44.6 °F - 40.5 °F 85% 30.00 in 10.0 mi Calm Calm - N/A   Overcast
10:35 PM 44.6 °F - 40.1 °F 84% 29.98 in 10.0 mi Calm Calm - N/A   Mostly Cloudy
10:55 PM 43.5 °F - 40.1 °F 88% 29.98 in 10.0 mi Calm Calm - N/A   Clear
11:15 PM 44.6 °F - 39.7 °F 83% 29.96 in 10.0 mi Calm Calm - N/A   Scattered Clouds
11:35 PM 45.5 °F - 37.9 °F 75% 30.00 in 10.0 mi Calm Calm - N/A   Clear
11:55 PM 46.6 °F - 34.7 °F 63% 30.00 in 10.0 mi WSW 8.1 mph 16.1 mph N/A   Clear